Date,TemperatureHighF,TemperatureAvgF,TemperatureLowF,DewpointHighF,DewpointAvgF,DewpointLowF,HumidityHigh,HumidityAvg,HumidityLow,PressureMaxIn,PressureMinIn,WindSpeedMaxMPH,WindSpeedAvgMPH,GustSpeedMaxMPH,PrecipitationSumIn
2012-7-15,93,88,83,62,59,57,49,38,31,29.96,29.90,0,-999,0,0.00
2012-7-16,85,78,73,66,64,62,76,62,46,29.96,29.85,0,-999,0,0.00
2012-7-17,95,81,77,65,64,61,62,56,33,29.85,29.78,0,-999,0,0.00
2012-7-18,102,93,77,70,65,60,60,41,31,29.92,29.85,0,-999,0,0.00
2012-7-19,99,88,80,70,64,61,55,45,36,29.98,29.90,0,-999,0,0.24
2012-7-20,98,82,74,70,65,58,72,58,37,30.03,29.98,0,-999,0,0.24
2012-7-21,100,87,74,69,62,55,66,45,25,30.05,29.94,0,-999,0,0.00
2012-7-22,100,89,80,71,62,55,51,41,31,30.04,29.97,0,-999,0,0.00
2012-7-23,99,90,78,71,62,56,58,41,33,30.09,29.96,0,-999,0,0.00
2012-7-24,101,90,70,69,65,62,61,44,32,30.01,29.82,0,-999,0,0.00
2012-7-25,98,86,80,68,64,62,58,48,32,29.87,29.69,0,-999,0,0.00
2012-7-26,94,85,75,70,66,62,76,54,43,29.94,29.81,0,-999,0,0.12
2012-7-27,103,82,75,70,64,60,68,56,28,30.04,29.94,0,-999,0,0.02
2012-7-28,103,94,79,71,61,57,50,36,25,30.09,29.94,0,-999,0,0.00
2012-7-29,107,95,84,69,62,56,49,35,24,30.01,29.85,0,-999,0,0.00
2012-7-30,105,93,81,66,61,56,52,35,27,29.95,29.84,0,-999,0,0.00
2012-7-31,99,90,79,69,64,61,61,44,33,29.95,29.87,0,-999,0,0.00
2012-8-1,103,91,78,68,64,61,61,42,29,29.95,29.76,0,-999,0,0.00
2012-8-2,99,90,74,69,65,60,61,44,37,29.86,29.71,0,-999,0,0.00
2012-8-3,100,89,74,70,66,61,64,48,30,29.83,29.72,0,-999,0,0.00
2012-8-4,99,88,76,72,65,60,60,47,37,30.11,29.73,114,-678,114,0.02
2012-8-5,93,81,68,62,57,50,66,46,26,30.22,30.10,6,-488,6,0.02
2012-8-6,98,85,68,60,56,52,62,40,27,30.15,29.97,0,-999,0,0.00
2012-8-7,91,82,78,68,60,19,69,47,40,30.01,29.91,0,-999,0,0.26
2012-8-8,102,93,74,69,65,60,66,41,29,30.01,29.86,0,-999,0,0.26
2012-8-9,94,86,71,66,60,54,63,43,31,30.01,29.91,0,-999,0,0.00
2012-8-10,89,84,78,62,55,50,41,38,33,30.10,30.01,0,-999,0,0.00
2012-8-11,88,84,66,56,51,48,60,33,26,30.07,29.91,0,-999,0,0.00
2012-8-12,96,87,80,64,59,55,47,39,32,29.98,29.90,0,-999,0,0.00
2012-8-13,88,82,67,61,57,53,65,43,35,30.11,29.99,0,-999,0,0.00
2012-8-14,74,70,67,62,58,56,82,67,54,30.09,29.93,0,-999,0,0.08
2012-8-15,93,82,64,71,65,56,79,58,45,29.93,29.79,0,-999,0,0.02
2012-8-16,86,79,70,67,58,49,67,50,37,30.13,29.86,0,-999,0,0.00
2012-8-17,87,76,64,56,51,49,62,44,31,30.14,29.98,0,-999,0,0.00
2012-8-18,92,76,68,100,54,48,54,45,38,30.03,29.86,61,-539,61,0.00
2012-8-19,86,74,61,100,52,46,99,47,31,30.06,29.93,58,3,58,0.00
2012-8-20,91,76,57,100,50,-15,65,41,25,30.08,29.95,7,0,7,0.00
2012-8-21,92,80,63,62,52,43,58,37,26,30.09,30.00,12,1,64,0.00
2012-8-22,90,81,68,62,54,48,64,41,29,30.09,29.95,24,4,24,0.00
2012-8-23,90,81,74,63,57,50,49,44,38,30.02,29.89,26,8,26,0.00
2012-8-24,79,74,68,68,61,55,83,66,45,29.93,29.83,19,5,20,0.29
2012-8-25,79,74,70,72,67,64,88,80,66,29.91,29.81,20,1,20,2.65
2012-8-26,87,77,70,100,68,65,88,73,54,30.08,29.90,12,1,12,0.04
2012-8-27,92,81,68,72,65,62,84,61,36,30.18,30.06,10,0,10,0.00
2012-8-28,93,80,66,65,61,56,81,54,31,30.18,30.02,8,0,8,0.00
2012-8-29,96,87,73,66,62,59,67,44,33,30.07,29.91,11,1,11,0.00
2012-8-30,96,84,70,64,60,56,75,49,29,30.01,29.88,8,0,8,0.00
2012-8-31,94,82,69,69,63,56,69,53,43,29.99,29.90,14,2,14,0.00
2012-9-1,96,82,69,71,65,60,76,58,38,30.05,29.95,13,1,13,0.02
2012-9-2,103,92,73,72,66,60,71,44,28,29.97,29.83,10,1,10,0.00
2012-9-3,104,91,76,72,64,59,62,44,26,29.91,29.80,16,2,16,0.00
2012-9-4,93,85,76,73,66,62,77,55,40,29.98,29.79,27,1,27,0.16
2012-9-5,94,82,69,71,66,62,78,60,45,29.98,29.82,22,1,22,0.47
2012-9-6,94,84,70,69,63,59,73,52,35,29.99,29.81,18,2,18,0.02
2012-9-7,87,74,64,65,58,52,71,56,39,30.14,29.80,40,7,40,0.20
2012-9-8,108,80,64,93,60,48,77,52,32,30.24,30.08,17,1,17,0.12
2012-9-9,150,54,67,100,73,47,57,27,31,30.20,30.07,13,2,13,0.00
2012-9-10,89,75,60,57,50,45,65,43,25,30.15,29.96,18,3,18,0.00
2012-9-11,91,79,63,56,50,45,56,37,26,30.02,29.88,28,7,28,0.00
2012-9-12,93,81,69,61,56,50,59,42,34,30.11,29.89,26,9,26,0.00
2012-9-13,69,59,56,54,51,50,82,76,59,30.36,30.11,28,9,28,0.69
2012-9-14,72,63,55,52,48,43,81,61,40,30.37,30.26,17,4,17,0.12
2012-9-15,67,63,59,60,55,46,81,76,50,30.26,30.10,11,1,11,0.02
2012-9-16,79,70,65,64,60,56,83,72,54,30.11,29.96,12,1,12,0.00
2012-9-17,84,70,60,66,58,48,84,67,50,30.06,29.88,25,4,25,0.00
2012-9-18,78,68,52,53,48,43,75,50,36,30.15,30.01,14,2,14,0.00
2012-9-19,90,74,57,57,52,44,64,46,33,30.02,29.87,21,6,21,0.00
2012-9-20,83,72,62,50,45,40,46,39,26,30.06,29.96,15,2,15,0.00
2012-9-21,88,74,62,51,47,44,46,37,27,30.00,29.90,14,1,14,0.00
2012-9-22,77,65,57,46,44,31,60,48,30,30.24,29.99,21,4,21,0.00
2012-9-23,60,55,53,38,34,31,48,44,34,30.28,30.17,4,0,4,0.00
2012-9-24,83,80,77,54,53,53,44,41,38,29.83,29.81,15,5,15,0.00
2012-9-25,86,75,64,63,56,50,72,52,44,29.87,0.00,17,2,17,0.00
2012-9-26,76,69,63,62,60,57,84,71,60,30.13,0.00,13,1,13,4.10
2012-9-27,71,67,62,100,60,57,86,78,72,30.15,30.07,8,-2,8,0.06
2012-9-28,74,67,62,64,60,57,92,80,67,30.21,30.06,9,-3,9,0.00
2012-9-29,75,67,60,60,55,50,87,67,53,30.13,30.01,11,0,11,0.00
2012-9-30,79,66,58,57,52,50,76,60,44,30.05,29.91,6,-2,6,0.00
2012-10-1,278,66,63,100,82,48,83,50,33,30.01,29.88,20,0,20,0.04
2012-10-2,278,13,60,100,89,41,49,9,41,30.04,29.90,9,-20,9,1.35
2012-10-3,80,67,52,52,46,39,62,48,35,29.96,29.84,22,4,22,0.65
2012-10-4,68,60,56,51,44,39,65,55,45,30.30,29.94,22,4,22,0.00
2012-10-5,59,54,48,40,35,31,57,50,37,30.33,30.21,10,-858,10,0.00
2012-10-6,51,47,45,36,34,31,66,60,54,30.37,30.26,0,-999,0,0.00
2012-10-7,61,48,38,39,33,28,71,57,39,30.37,30.15,6,-762,6,0.00
2012-10-8,67,52,38,40,33,26,67,49,31,30.16,29.94,0,-999,0,0.08
2012-10-9,71,58,47,52,42,34,68,54,44,30.18,29.86,0,-999,0,0.00
2012-10-10,69,55,41,41,34,30,66,47,30,30.29,30.10,10,-928,10,0.00
2012-10-11,78,67,54,63,50,32,72,55,42,30.11,29.95,22,-46,22,0.00
2012-10-12,69,60,54,61,50,43,88,72,54,30.22,30.00,13,-346,13,0.02
2012-10-13,76,69,63,69,63,52,92,83,69,29.93,29.60,21,5,21,0.02
2012-10-14,74,66,56,52,49,46,77,56,40,30.07,29.65,24,3,24,0.00
2012-10-15,84,70,52,55,48,42,74,48,30,30.05,29.82,16,2,16,0.00
2012-10-16,80,70,57,100,52,45,67,52,41,29.82,29.52,15,4,15,0.00
2012-10-17,71,63,54,100,45,29,77,53,30,29.84,29.42,34,6,34,0.00
2012-10-18,65,57,48,34,28,25,45,34,26,29.89,29.80,34,6,34,0.00
2012-10-19,66,56,44,38,29,22,55,37,28,29.93,29.82,25,2,25,0.00
2012-10-20,79,63,46,100,40,28,56,43,32,29.85,29.67,14,-16,14,0.00
2012-10-21,84,71,60,66,58,46,87,66,47,29.73,29.63,0,-999,0,0.00
2012-10-22,74,69,63,63,57,51,78,66,55,29.86,29.71,0,-999,0,0.00
2012-10-23,86,73,63,68,61,56,88,68,37,29.82,29.68,0,-999,0,0.00
2012-10-24,83,74,67,74,65,61,90,74,60,29.79,29.67,0,-999,0,0.00
2012-10-25,278,17,80,100,97,72,91,14,70,30.32,29.62,0,-999,0,0.00
2012-10-26,278,16,38,100,73,24,58,19,45,30.50,30.30,0,-999,0,0.00
2012-10-27,53,42,31,32,27,22,70,56,42,30.40,30.20,0,-999,0,0.00
2012-10-28,60,53,48,34,31,26,51,43,39,30.30,30.17,14,-140,14,0.00
2012-10-29,65,52,40,36,31,25,61,46,34,30.23,30.04,21,6,21,0.00
2012-10-30,75,60,49,46,38,30,55,44,34,30.05,29.89,11,2,11,0.00
2012-10-31,69,57,42,42,37,31,66,48,36,30.10,29.97,6,0,6,0.00
2012-11-1,76,59,45,49,41,35,68,53,33,30.04,29.91,7,0,7,0.02
2012-11-2,85,65,52,50,44,38,66,48,30,29.99,29.76,22,6,22,0.00
2012-11-3,65,52,42,38,35,30,63,53,40,30.21,29.99,19,4,19,0.00
2012-11-4,67,55,41,42,36,32,71,51,33,30.20,30.02,17,3,17,0.00
2012-11-5,56,50,43,38,35,32,69,58,44,30.15,30.04,28,5,28,0.00
2012-11-6,66,51,40,43,34,27,73,53,34,30.14,30.06,23,3,23,0.00
2012-11-7,63,53,39,36,30,24,55,42,29,30.21,30.02,15,3,15,0.00
2012-11-8,74,62,49,50,42,28,63,47,39,30.03,29.79,29,10,29,0.00
2012-11-9,77,68,59,58,54,49,70,61,49,29.82,29.70,34,13,34,0.00
2012-11-10,72,68,63,57,54,52,72,62,58,29.78,29.60,37,14,37,0.02
2012-11-11,63,38,31,56,26,19,79,63,50,30.27,29.68,29,8,29,0.02
2012-11-12,53,41,28,30,23,18,66,51,35,30.43,30.27,19,3,19,0.00
2012-11-13,56,44,32,32,26,22,70,50,36,30.40,30.27,21,4,21,0.00
2012-11-14,55,45,36,30,26,22,57,48,37,30.33,30.19,21,6,21,0.00
2012-11-15,61,46,38,39,30,26,65,55,43,30.37,30.19,14,3,14,0.00
2012-11-16,64,50,38,39,33,28,73,53,37,30.40,30.30,13,3,13,0.00
2012-11-17,149,68,51,100,33,-100,74,43,37,30.31,30.17,30,10,30,0.00
2012-11-18,62,21,52,40,-49,-100,62,18,41,30.21,30.03,31,11,31,0.10
2012-11-19,70,58,47,52,44,38,72,62,46,30.15,30.05,21,3,21,0.10
2012-11-20,68,55,43,46,40,34,72,58,43,30.25,30.14,6,0,6,0.00
2012-11-21,72,60,46,51,44,36,72,57,45,30.19,29.93,33,10,33,0.00
2012-11-22,73,62,50,54,45,33,68,55,39,30.31,29.86,31,8,31,0.00
2012-11-23,50,42,34,34,23,19,56,47,35,30.55,30.30,27,6,27,0.00
2012-11-24,57,43,30,28,22,16,59,45,32,30.40,29.90,27,9,27,0.00
2012-11-25,59,48,37,32,27,21,56,45,35,29.97,29.85,20,2,20,0.00
2012-11-26,47,38,32,28,25,21,71,58,42,30.44,29.96,30,8,30,0.00
2012-11-27,45,36,24,27,22,14,68,58,49,30.43,30.23,20,4,20,0.00
2012-11-28,56,44,31,34,29,20,66,55,43,30.34,30.10,19,5,19,0.00
2012-11-29,64,54,40,100,40,31,73,59,50,30.11,29.94,20,5,20,0.00
2012-11-30,62,52,38,49,40,30,86,66,55,30.09,29.92,18,2,18,0.00
2012-12-1,64,57,51,54,51,41,88,80,59,29.93,29.78,26,9,26,0.00
2012-12-2,68,54,41,50,42,34,79,66,49,30.04,29.79,15,3,15,0.00
2012-12-3,71,61,52,56,48,36,82,63,37,30.09,29.68,30,10,30,0.00
2012-12-4,64,51,37,38,31,25,61,47,32,30.32,30.09,8,1,8,0.00
2012-12-5,58,47,36,32,25,22,56,43,27,30.30,29.96,23,6,23,0.00
2012-12-6,54,48,42,43,37,26,80,66,47,29.96,29.83,20,6,20,0.00
2012-12-7,50,44,38,39,33,28,72,67,61,29.96,29.83,14,3,14,0.00
2012-12-8,49,40,32,39,32,24,77,72,59,29.97,29.81,8,1,8,0.00
2012-12-9,90,42,24,68,30,9,83,62,45,30.17,29.82,33,10,33,0.00
2012-12-10,38,28,16,14,8,3,57,43,32,30.17,29.99,26,6,26,0.00
2012-12-11,49,36,22,23,14,4,50,41,34,30.11,30.00,9,2,9,0.00
2012-12-12,51,41,28,21,17,13,54,39,29,30.15,30.03,30,10,30,0.00
2012-12-13,57,46,35,29,24,18,53,42,33,30.09,30.00,26,10,26,0.00
2012-12-14,54,47,42,100,34,25,86,60,48,30.04,29.49,30,11,30,0.00
2012-12-15,62,52,43,46,41,33,84,66,52,29.73,29.47,29,7,29,0.00
2012-12-16,47,41,35,36,32,29,79,72,63,29.82,29.67,22,3,22,0.00
2012-12-17,55,43,32,37,30,26,77,62,37,29.83,29.67,16,4,16,0.00
2012-12-18,42,42,42,31,31,31,66,66,66,29.67,29.67,0,0,0,0.00
2012-12-20,147,28,26,100,-3,-100,81,50,34,30.29,29.66,39,11,39,0.00
2012-12-21,-200,0,200,-100,-100,-100,0,0,100,30.30,30.14,10,2,10,0.00
2012-12-22,146,23,11,100,-45,-100,50,16,27,30.14,29.91,16,4,16,0.00
2012-12-23,39,30,26,23,20,16,73,66,51,30.00,29.89,16,6,16,0.00
2012-12-24,31,25,20,17,14,12,70,63,54,30.08,29.96,18,7,18,0.00
2012-12-25,27,20,16,13,10,4,71,63,55,30.25,30.04,32,12,32,0.00
2012-12-26,31,21,11,12,8,2,67,57,44,30.27,30.05,20,6,20,0.00
2012-12-27,36,26,22,23,16,11,71,64,55,30.07,29.88,21,7,21,0.00
2012-12-28,33,30,27,20,15,11,66,56,48,30.06,29.97,16,8,16,0.00
2012-12-29,44,33,27,23,15,6,52,49,43,30.30,30.06,9,2,9,0.00
2012-12-30,47,30,26,25,17,14,68,59,38,30.30,30.11,21,6,21,0.00
2012-12-31,35,31,26,29,23,0,86,73,46,30.13,29.97,10,1,10,0.00
2013-1-1,29,25,20,21,18,12,83,73,66,30.33,30.12,0,0,0,0.00